When you browse on this site, cookies collect data to enhance your experience and personalize the content and advertising you see.
Visit our Privacy Policy to learn more. By continuing to use the site, you agree to this use of cookies and data.
  • In Hungary
  • List of Countries
  • For 7 days
  • Water Temperature
  • Weather Map
  • News
  • Weather Widgets
  • user-avatar
    Login

    Hourly Weather Mahalotli

    Today, 21 October, Monday

    Time Temperature Precipitation Wind Pressure Humidity
    00:00 +4°C° 0 mm 0 mps 591 mmHg 89%
    01:00 +4°C° 0 mm 0 mps 591 mmHg 90%
    02:00 +4°C° 0 mm 0 mps 591 mmHg 90%
    03:00 +5°C° 0 mm 0 mps 591 mmHg 91%
    04:00 +4°C° 0 mm 0 mps 591 mmHg 91%
    05:00 +4°C° 0 mm 0 mps 591 mmHg 90%
    06:00 +3°C° 0 mm 0 mps 591 mmHg 90%
    07:00 +5°C° 0 mm 0 mps 592 mmHg 82%
    08:00 +7°C° 0 mm 0 mps 593 mmHg 74%
    09:00 +9°C° 0 mm 0 mps 594 mmHg 66%
    10:00 +10°C° 0 mm 1 mps 594 mmHg 64%
    11:00 +11°C° 0 mm 1 mps 594 mmHg 62%
    12:00 +12°C° 0 mm 2 mps 594 mmHg 60%
    13:00 +10°C° 0 mm 2 mps 594 mmHg 63%
    14:00 +10°C° 0 mm 2 mps 593 mmHg 67%
    15:00 +11°C° 0 mm 1 mps 593 mmHg 71%
    16:00 +9°C° 0 mm 1 mps 593 mmHg 77%
    17:00 +8°C° 0 mm 1 mps 592 mmHg 82%
    18:00 +7°C° 0 mm 1 mps 592 mmHg 88%
    19:00 +7°C° 0 mm 1 mps 592 mmHg 88%
    20:00 +6°C° 0 mm 1 mps 591 mmHg 89%
    21:00 +6°C° 0 mm 1 mps 591 mmHg 89%
    22:00 +6°C° 0 mm 1 mps 591 mmHg 89%
    23:00 +6°C° 0 mm 1 mps 591 mmHg 89%

    Tomorrow, 22 October, Tuesday

    Time Temperature Precipitation Wind Pressure Humidity
    00:00 +6°C° 0 mm 1 mps 591 mmHg 89%
    01:00 +6°C° 0 mm 1 mps 591 mmHg 89%
    02:00 +5°C° 0 mm 1 mps 591 mmHg 90%
    03:00 +5°C° 0 mm 1 mps 590 mmHg 90%
    04:00 +5°C° 0 mm 1 mps 590 mmHg 90%
    05:00 +3°C° 0 mm 0 mps 590 mmHg 90%
    06:00 +2°C° 0 mm 0 mps 589 mmHg 89%
    07:00 +4°C° 0 mm 0 mps 590 mmHg 80%
    08:00 +6°C° 0 mm 0 mps 591 mmHg 71%
    09:00 +8°C° 0 mm 0 mps 593 mmHg 62%
    10:00 +10°C° 0 mm 1 mps 593 mmHg 58%
    11:00 +11°C° 0 mm 1 mps 593 mmHg 55%
    12:00 +12°C° 0 mm 1 mps 593 mmHg 51%
    13:00 +12°C° 0 mm 1 mps 593 mmHg 54%
    14:00 +10°C° 0 mm 2 mps 593 mmHg 58%
    15:00 +10°C° 0 mm 2 mps 592 mmHg 61%
    16:00 +9°C° 0 mm 1 mps 592 mmHg 71%
    17:00 +8°C° 0 mm 1 mps 591 mmHg 80%
    18:00 +5°C° 0 mm 0 mps 590 mmHg 90%
    19:00 +4°C° 0 mm 0 mps 590 mmHg 89%
    20:00 +4°C° 0 mm 0 mps 590 mmHg 89%
    21:00 +3°C° 0 mm 0 mps 590 mmHg 89%
    22:00 +3°C° 0 mm 0 mps 590 mmHg 88%
    23:00 +3°C° 0 mm 0 mps 589 mmHg 88%

    Day after tomorrow, 23 October, Wednesday

    Time Temperature Precipitation Wind Pressure Humidity
    00:00 +3°C° 0 mm 0 mps 589 mmHg 87%
    01:00 +3°C° 0 mm 0 mps 589 mmHg 88%
    02:00 +2°C° 0 mm 0 mps 589 mmHg 88%
    03:00 +2°C° 0 mm 0 mps 589 mmHg 88%
    04:00 +2°C° 0 mm 0 mps 589 mmHg 85%
    05:00 +2°C° 0 mm 0 mps 589 mmHg 81%
    06:00 +2°C° 0 mm 0 mps 589 mmHg 78%
    07:00 +4°C° 0 mm 0 mps 590 mmHg 68%
    08:00 +6°C° 0 mm 0 mps 591 mmHg 58%
    09:00 +7°C° 0 mm 0 mps 592 mmHg 47%
    10:00 +9°C° 0 mm 1 mps 592 mmHg 47%
    11:00 +10°C° 0 mm 1 mps 592 mmHg 46%
    12:00 +10°C° 0 mm 2 mps 592 mmHg 45%
    13:00 +10°C° 0 mm 2 mps 592 mmHg 50%
    14:00 +9°C° 0 mm 2 mps 592 mmHg 55%
    15:00 +9°C° 0 mm 2 mps 591 mmHg 59%
    16:00 +8°C° 0 mm 1 mps 591 mmHg 70%
    17:00 +6°C° 0 mm 1 mps 590 mmHg 80%
    18:00 +3°C° 0 mm 0 mps 589 mmHg 90%
    19:00 +3°C° 0 mm 0 mps 589 mmHg 90%
    20:00 +4°C° 0 mm 1 mps 589 mmHg 91%
    21:00 +3°C° 0 mm 1 mps 589 mmHg 91%
    22:00 +3°C° 0 mm 1 mps 589 mmHg 91%
    23:00 +3°C° 0 mm 1 mps 589 mmHg 91%

    24 October, Thursday

    Time Temperature Precipitation Wind Pressure Humidity
    00:00 +3°C° 0 mm 1 mps 589 mmHg 91%
    01:00 +3°C° 0 mm 1 mps 589 mmHg 90%
    02:00 +3°C° 0 mm 1 mps 588 mmHg 88%
    03:00 +2°C° 0 mm 1 mps 588 mmHg 87%
    04:00 +2°C° 0 mm 1 mps 588 mmHg 82%
    05:00 +2°C° 0 mm 1 mps 588 mmHg 78%
    06:00 +2°C° 0 mm 1 mps 588 mmHg 73%
    07:00 +4°C° 0 mm 1 mps 589 mmHg 64%
    08:00 +6°C° 0 mm 1 mps 590 mmHg 55%
    09:00 +8°C° 0 mm 1 mps 591 mmHg 47%
    10:00 +9°C° 0 mm 1 mps 592 mmHg 44%
    11:00 +10°C° 0 mm 1 mps 592 mmHg 42%
    12:00 +10°C° 0 mm 2 mps 592 mmHg 40%
    13:00 +10°C° 0 mm 2 mps 592 mmHg 43%
    14:00 +10°C° 0 mm 2 mps 592 mmHg 47%
    15:00 +10°C° 0 mm 2 mps 591 mmHg 50%
    16:00 +8°C° 0 mm 1 mps 590 mmHg 60%
    17:00 +6°C° 0 mm 1 mps 589 mmHg 70%
    18:00 +4°C° 0 mm 1 mps 588 mmHg 80%
    19:00 +4°C° 0 mm 1 mps 588 mmHg 76%
    20:00 +3°C° 0 mm 1 mps 588 mmHg 73%
    21:00 +3°C° 0 mm 1 mps 588 mmHg 69%
    22:00 +3°C° 0 mm 1 mps 588 mmHg 68%
    23:00 +3°C° 0 mm 1 mps 588 mmHg 66%

    25 October, Friday

    Time Temperature Precipitation Wind Pressure Humidity
    00:00 +2°C° 0 mm 1 mps 588 mmHg 64%
    01:00 +2°C° 0 mm 1 mps 587 mmHg 63%
    02:00 +2°C° 0 mm 1 mps 587 mmHg 61%
    03:00 +2°C° 0 mm 1 mps 587 mmHg 60%
    04:00 +2°C° 0 mm 1 mps 587 mmHg 59%
    05:00 +2°C° 0 mm 1 mps 587 mmHg 58%
    06:00 +2°C° 0 mm 1 mps 587 mmHg 57%
    07:00 +4°C° 0 mm 1 mps 588 mmHg 53%
    08:00 +6°C° 0 mm 1 mps 589 mmHg 48%
    09:00 +8°C° 0 mm 1 mps 590 mmHg 44%
    10:00 +9°C° 0 mm 1 mps 591 mmHg 44%
    11:00 +11°C° 0 mm 1 mps 591 mmHg 45%
    12:00 +12°C° 0 mm 1 mps 592 mmHg 45%
    13:00 +11°C° 0 mm 1 mps 591 mmHg 48%
    14:00 +11°C° 0 mm 1 mps 591 mmHg 50%
    15:00 +11°C° 0 mm 1 mps 591 mmHg 52%
    16:00 +9°C° 0 mm 1 mps 590 mmHg 60%
    17:00 +6°C° 0 mm 0 mps 589 mmHg 68%
    18:00 +4°C° 0 mm 0 mps 588 mmHg 76%
    19:00 +4°C° 0 mm 0 mps 588 mmHg 78%
    20:00 +3°C° 0 mm 0 mps 588 mmHg 79%
    21:00 +3°C° 0 mm 0 mps 588 mmHg 81%
    22:00 +4°C° 0 mm 1 mps 588 mmHg 82%
    23:00 +4°C° 0 mm 1 mps 588 mmHg 84%

    26 October, Saturday

    Time Temperature Precipitation Wind Pressure Humidity
    00:00 +3°C° 0 mm 1 mps 588 mmHg 85%
    01:00 +3°C° 0 mm 1 mps 588 mmHg 85%
    02:00 +3°C° 0 mm 1 mps 588 mmHg 86%
    03:00 +3°C° 0 mm 1 mps 588 mmHg 86%
    04:00 +3°C° 0 mm 1 mps 588 mmHg 85%
    05:00 +3°C° 0 mm 1 mps 588 mmHg 84%
    06:00 +3°C° 0 mm 1 mps 588 mmHg 83%
    07:00 +5°C° 0 mm 1 mps 589 mmHg 76%
    08:00 +6°C° 0 mm 1 mps 590 mmHg 68%
    09:00 +8°C° 0 mm 1 mps 591 mmHg 61%
    10:00 +9°C° 0 mm 1 mps 591 mmHg 59%
    11:00 +9°C° 0 mm 2 mps 591 mmHg 57%
    12:00 +10°C° 0 mm 2 mps 592 mmHg 55%
    13:00 +9°C° 0 mm 2 mps 591 mmHg 59%
    14:00 +9°C° 0 mm 2 mps 591 mmHg 64%
    15:00 +8°C° 0 mm 2 mps 590 mmHg 68%
    16:00 +8°C° 0 mm 1 mps 590 mmHg 76%
    17:00 +7°C° 0 mm 1 mps 590 mmHg 83%
    18:00 +6°C° 0 mm 1 mps 589 mmHg 90%
    19:00 +5°C° 0 mm 1 mps 589 mmHg 91%
    20:00 +4°C° 0 mm 1 mps 588 mmHg 92%
    21:00 +3°C° 0 mm 1 mps 588 mmHg 93%
    22:00 +3°C° 0 mm 1 mps 588 mmHg 92%
    23:00 +3°C° 0 mm 1 mps 588 mmHg 91%

    27 October, Sunday

    Time Temperature Precipitation Wind Pressure Humidity
    00:00 +3°C° 0 mm 1 mps 588 mmHg 90%
    01:00 +3°C° 0 mm 1 mps 588 mmHg 89%
    02:00 +3°C° 0 mm 1 mps 588 mmHg 87%
    03:00 +3°C° 0 mm 1 mps 588 mmHg 85%
    04:00 +3°C° 0 mm 1 mps 588 mmHg 84%
    05:00 +3°C° 0 mm 1 mps 588 mmHg 82%
    06:00 +3°C° 0 mm 1 mps 588 mmHg 81%
    07:00 +5°C° 0 mm 1 mps 589 mmHg 75%
    08:00 +6°C° 0 mm 1 mps 590 mmHg 69%
    09:00 +8°C° 0 mm 1 mps 590 mmHg 63%
    10:00 +9°C° 0 mm 1 mps 591 mmHg 61%
    11:00 +9°C° 0 mm 2 mps 591 mmHg 60%
    12:00 +10°C° 0 mm 2 mps 591 mmHg 59%
    13:00 +9°C° 0 mm 2 mps 591 mmHg 63%
    14:00 +9°C° 0 mm 2 mps 590 mmHg 66%
    15:00 +9°C° 0 mm 1 mps 590 mmHg 70%
    16:00 +8°C° 0 mm 1 mps 589 mmHg 77%
    17:00 +6°C° 0 mm 1 mps 589 mmHg 83%
    18:00 +5°C° 0 mm 1 mps 588 mmHg 90%
    19:00 +5°C° 0 mm 1 mps 588 mmHg 91%
    20:00 +5°C° 0 mm 1 mps 588 mmHg 92%
    21:00 +4°C° 0 mm 1 mps 588 mmHg 93%
    22:00 +5°C° 0 mm 1 mps 588 mmHg 93%
    23:00 +5°C° 0 mm 1 mps 588 mmHg 93%
    Show more